Weather History for Louisa, VA

Change the Weather History Date:

Wednesday, May 2, 2012

  Actual Average (KCHO) Record (KCHO)
Temperature  
Mean Temperature 76 °F 60 °F  
Max Temperature 87 °F 72 °F 91 °F (1986)
Min Temperature 64 °F 47 °F 36 °F (1978)
Degree Days  
Heating Degree Days 0 6  
Month to date heating degree days 13  
Since 1 July heating degree days 4325  
Cooling Degree Days 10 1  
Month to date cooling degree days 2  
Year to date cooling degree days 23  
Growing Degree Days 26 (Base 50)    
Moisture  
Dew Point 64 °F    
Average Humidity 73    
Maximum Humidity 94    
Minimum Humidity 43    
Precipitation  
Precipitation 0.02 in 0.10 in 0.86 in (2004)
Month to date precipitation 0.20  
Year to date precipitation 12.69  
Sea Level Pressure  
Sea Level Pressure 30.04 in    
Wind  
Wind Speed 3 mph (SSW)    
Max Wind Speed 9 mph    
Max Gust Speed -    
Visibility 9 miles    
Events Rain    
T = Trace of Precipitation, MM = Missing Value Source: NWS Daily Summary

Daily Weather History Graph

Daily Weather History Graph

Search for Another Location

Airport:

Trip Planner

Search our weather history database for the weather conditions in past years. The results will help you decide how hot, cold, wet, or windy it might be!

Date:

Astronomy

May. 02, 2012 Rise Set
Actual Time 6:14 AM EDT 8:04 PM EDT
Civil Twilight 5:45 AM EDT 8:32 PM EDT
Nautical Twilight 5:11 AM EDT 9:07 PM EDT
Astronomical Twilight 4:34 AM EDT 9:44 PM EDT
Moon 4:17 PM EDT (5/2) 3:39 AM EDT (5/2)
Length of Visible Light 14h 47m
Length of Day
13h 50m
Waxing Gibbous, 83% of the Moon is Illuminated
May 2
Waxing Gibbous
May 5
Full
May 12
Last Quarter
May 20
New
May 28
First Quarter

Hourly Weather History & Observations

Time (EDT) Temp. Heat Index Dew Point Humidity Pressure Visibility Wind Dir Wind Speed Gust Speed Precip Events Conditions
12:15 AM 69.8 °F - 64.4 °F 83% 30.01 in 10.0 mi SSW 3.5 mph - N/A   Clear
12:35 AM 69.8 °F - 64.4 °F 83% 30.01 in 10.0 mi SSW 3.5 mph - N/A   Clear
12:55 AM 68.0 °F - 62.6 °F 83% 30.00 in 10.0 mi SSW 3.5 mph - N/A   Clear
1:15 AM 68.0 °F - 64.4 °F 88% 30.00 in 10.0 mi South 3.5 mph - N/A   Clear
1:35 AM 68.0 °F - 64.4 °F 88% 30.01 in 10.0 mi SSW 3.5 mph - N/A   Clear
1:55 AM 66.2 °F - 62.6 °F 88% 30.00 in 10.0 mi SW 3.5 mph - N/A   Clear
2:15 AM 68.0 °F - 62.6 °F 83% 29.99 in 10.0 mi SW 3.5 mph - N/A   Clear
2:55 AM 66.2 °F - 62.6 °F 88% 29.98 in 10.0 mi Calm Calm - N/A   Clear
3:15 AM 66.2 °F - 62.6 °F 88% 29.98 in 10.0 mi Calm Calm - N/A   Clear
3:35 AM 66.2 °F - 62.6 °F 88% 29.98 in 10.0 mi South 3.5 mph - N/A   Clear
3:55 AM 66.2 °F - 62.6 °F 88% 29.98 in 10.0 mi South 3.5 mph - N/A   Clear
4:15 AM 66.2 °F - 62.6 °F 88% 29.98 in 10.0 mi Calm Calm - N/A   Clear
4:35 AM 66.2 °F - 62.6 °F 88% 29.99 in 10.0 mi Calm Calm - N/A   Scattered Clouds
4:55 AM 64.4 °F - 62.6 °F 94% 29.99 in 10.0 mi SSW 3.5 mph - N/A   Scattered Clouds
5:15 AM 66.2 °F - 62.6 °F 88% 30.02 in 7.0 mi NNW 5.8 mph - N/A   Mostly Cloudy
5:35 AM 64.4 °F - 62.6 °F 94% 30.01 in 7.0 mi Calm Calm - N/A   Scattered Clouds
5:55 AM 64.4 °F - 62.6 °F 94% 30.01 in 1.5 mi Calm Calm - N/A   Mostly Cloudy
6:15 AM 64.4 °F - 62.6 °F 94% 30.05 in 7.0 mi West 4.6 mph - 0.01 in   Mostly Cloudy
6:35 AM 64.4 °F - 62.6 °F 94% 30.03 in 7.0 mi Calm Calm - 0.01 in Rain Light Rain
6:55 AM 64.4 °F - 62.6 °F 94% 30.02 in 2.0 mi Calm Calm - 0.02 in   Mostly Cloudy
7:15 AM 64.4 °F - 62.6 °F 94% 30.03 in 2.0 mi Calm Calm - N/A   Clear
7:35 AM 64.4 °F - 62.6 °F 94% 30.04 in 7.0 mi SSW 3.5 mph - N/A   Clear
7:55 AM 66.2 °F - 62.6 °F 88% 30.04 in 7.0 mi Calm Calm - N/A   Clear
8:15 AM 68.0 °F - 62.6 °F 83% 30.05 in 10.0 mi WSW 4.6 mph - N/A   Clear
8:35 AM 69.8 °F - 64.4 °F 83% 30.06 in 10.0 mi West 3.5 mph - N/A   Clear
8:55 AM 71.6 °F - 64.4 °F 78% 30.07 in 10.0 mi Calm Calm - N/A   Clear
9:15 AM 71.6 °F - 64.4 °F 78% 30.07 in 10.0 mi West 6.9 mph - N/A   Mostly Cloudy
9:35 AM 71.6 °F - 64.4 °F 78% 30.08 in 10.0 mi WSW 5.8 mph - N/A   Scattered Clouds
9:55 AM 71.6 °F - 64.4 °F 78% 30.07 in 10.0 mi WSW 4.6 mph - N/A Rain Light Rain
10:15 AM 73.4 °F - 64.4 °F 73% 30.08 in 10.0 mi Calm Calm - N/A   Clear
10:35 AM 73.4 °F - 66.2 °F 78% 30.08 in 10.0 mi Calm Calm - N/A   Clear
10:55 AM 75.2 °F - 64.4 °F 69% 30.08 in 10.0 mi Calm Calm - N/A   Clear
11:15 AM 78.8 °F - 64.4 °F 61% 30.07 in 10.0 mi West 5.8 mph - N/A   Clear
11:35 AM 78.8 °F - 62.6 °F 57% 30.07 in 10.0 mi West 4.6 mph - N/A   Clear
11:55 AM 80.6 °F 81.8 °F 62.6 °F 54% 30.07 in 10.0 mi WNW 5.8 mph - N/A   Clear
12:15 PM 80.6 °F 81.8 °F 62.6 °F 54% 30.07 in 10.0 mi Calm Calm - N/A   Clear
12:35 PM 82.4 °F 83.9 °F 64.4 °F 54% 30.07 in 10.0 mi WSW 3.5 mph - N/A   Clear
12:55 PM 80.6 °F 81.8 °F 62.6 °F 54% 30.06 in 10.0 mi SW 3.5 mph - N/A   Clear
1:15 PM 82.4 °F 82.9 °F 60.8 °F 48% 30.06 in 10.0 mi WNW 9.2 mph - N/A   Clear
1:35 PM 82.4 °F 83.4 °F 62.6 °F 51% 30.06 in 10.0 mi West 5.8 mph - N/A   Clear
1:55 PM 82.4 °F 82.9 °F 60.8 °F 48% 30.06 in 10.0 mi WSW 4.6 mph - N/A   Clear
2:15 PM 82.4 °F 83.4 °F 62.6 °F 51% 30.05 in 10.0 mi West 4.6 mph - N/A   Clear
2:35 PM 82.4 °F 83.4 °F 62.6 °F 51% 30.05 in 10.0 mi SSW 3.5 mph - N/A   Clear
2:55 PM 82.4 °F 83.4 °F 62.6 °F 51% 30.05 in 10.0 mi SSW 3.5 mph - N/A   Clear
3:15 PM 84.2 °F 85.0 °F 62.6 °F 48% 30.04 in 10.0 mi Calm Calm - N/A   Clear
3:35 PM 84.2 °F 85.0 °F 62.6 °F 48% 30.03 in 10.0 mi Calm Calm - N/A   Clear
3:55 PM 86.0 °F 86.6 °F 62.6 °F 45% 30.03 in 10.0 mi West 4.6 mph - N/A   Clear
4:15 PM 87.8 °F 88.5 °F 62.6 °F 43% 30.02 in 10.0 mi South 3.5 mph - N/A   Clear
4:35 PM 86.0 °F 86.6 °F 62.6 °F 45% 30.03 in 10.0 mi ESE 5.8 mph - N/A   Scattered Clouds
4:55 PM 86.0 °F 86.6 °F 62.6 °F 45% 30.02 in 10.0 mi SE 4.6 mph - N/A   Scattered Clouds
5:15 PM 86.0 °F 87.3 °F 64.4 °F 48% 30.02 in 10.0 mi SSW 4.6 mph - N/A   Clear
5:35 PM 84.2 °F 85.6 °F 64.4 °F 51% 30.03 in 10.0 mi Calm Calm - N/A   Clear
5:55 PM 84.2 °F 85.6 °F 64.4 °F 51% 30.03 in 10.0 mi Calm Calm - N/A   Clear
6:35 PM 82.4 °F 84.6 °F 66.2 °F 58% 30.03 in 10.0 mi East 3.5 mph - N/A   Clear
6:55 PM 82.4 °F 85.4 °F 68.0 °F 62% 30.03 in 10.0 mi East 3.5 mph - N/A   Clear
7:15 PM 82.4 °F 85.4 °F 68.0 °F 62% 30.03 in 10.0 mi Calm Calm - N/A   Clear
7:35 PM 80.6 °F 83.2 °F 68.0 °F 65% 30.02 in 10.0 mi East 3.5 mph - N/A   Clear
7:55 PM 78.8 °F - 68.0 °F 69% 30.03 in 10.0 mi East 5.8 mph - N/A   Clear
8:15 PM 77.0 °F - 66.2 °F 69% 30.04 in 10.0 mi East 4.6 mph - N/A   Clear
8:35 PM 75.2 °F - 66.2 °F 73% 30.05 in 10.0 mi East 8.1 mph - N/A   Clear
8:55 PM 75.2 °F - 66.2 °F 73% 30.06 in 10.0 mi East 5.8 mph - N/A   Scattered Clouds
9:35 PM 71.6 °F - 64.4 °F 78% 30.06 in 10.0 mi East 5.8 mph - N/A   Scattered Clouds
9:55 PM 71.6 °F - 64.4 °F 78% 30.07 in 10.0 mi East 5.8 mph - N/A   Clear
10:15 PM 69.8 °F - 64.4 °F 83% 30.07 in 10.0 mi East 5.8 mph - N/A   Clear
10:35 PM 69.8 °F - 64.4 °F 83% 30.07 in 7.0 mi East 5.8 mph - N/A   Clear
10:55 PM 69.8 °F - 64.4 °F 83% 30.07 in 7.0 mi East 4.6 mph - N/A   Clear
11:15 PM 68.0 °F - 64.4 °F 88% 30.07 in 7.0 mi East 4.6 mph - N/A   Clear
11:35 PM 66.2 °F - 62.6 °F 88% 30.08 in 5.0 mi NE 4.6 mph - N/A   Scattered Clouds
11:55 PM 66.2 °F - 62.6 °F 88% 30.08 in 7.0 mi East 4.6 mph - N/A   Overcast